Weather History for Nueva Ocotepeque, Honduras

Change the Weather History Date:

Wednesday, February 19, 2014

  Actual Average (MHTG) Record (MHTG)
Temperature  
Mean Temperature 78 °F -  
Max Temperature 88 °F 80 °F 96 °F (1998)
Min Temperature 68 °F 58 °F 53 °F (2000)
Cooling Degree Days 13    
Growing Degree Days 28 (Base 50)    
Moisture  
Dew Point 59 °F    
Average Humidity 49    
Maximum Humidity 85    
Minimum Humidity 27    
Precipitation  
Precipitation 0.00 in - - ()
Sea Level Pressure  
Sea Level Pressure 29.87 in    
Wind  
Wind Speed 6 mph ()    
Max Wind Speed 15 mph    
Max Gust Speed 23 mph    
Visibility 6.1 miles    
Events      
Averages and records for this station are not official NWS values.
T = Trace of Precipitation, MM = Missing Value Source: Averaged Metar Reports

Daily Weather History Graph

Daily Weather History Graph

Search for Another Location

Airport:

Trip Planner

Search our weather history database for the weather conditions in past years. The results will help you decide how hot, cold, wet, or windy it might be!

Date:

Astronomy

Feb. 19, 2014 Rise Set
Actual Time 6:12 AM CST 5:56 PM CST
Civil Twilight 5:50 AM CST 6:18 PM CST
Nautical Twilight 5:25 AM CST 6:43 PM CST
Astronomical Twilight 5:00 AM CST 7:08 PM CST
Moon 9:55 PM CST (2/19) 9:07 AM CST (2/19)
Length of Visible Light 12h 27m
Length of Day
11h 43m
Waning Gibbous, 79% of the Moon is Illuminated
Feb 19
Waning Gibbous
Feb 22
Last Quarter
Mar 1
New
Mar 8
First Quarter
Mar 16
Full

Hourly Weather History & Observations

Time (CST) Temp. Heat Index Dew Point Humidity Pressure Visibility Wind Dir Wind Speed Gust Speed Precip Events Conditions
5:55 AM 67.5 °F - 62.8 °F 85% 29.90 in 6.2 mi North 5.8 mph - N/A   Scattered Clouds
6:00 AM 68 °F - 64 °F 84% 29.90 in 6 mi North 2.3 mph - -   Haze
6:55 AM 69.4 °F - 63.5 °F 81% 29.93 in 6.2 mi NNE 3.5 mph - N/A   Scattered Clouds
7:55 AM 72.5 °F - 62.4 °F 71% 29.94 in 6.2 mi NW 6.9 mph - N/A   Overcast
8:55 AM 74.1 °F - 61.5 °F 65% 29.94 in 6.2 mi NW 5.8 mph - N/A   Scattered Clouds
9:00 AM 74 °F - 63 °F 60% 29.92 in 6 mi North 2.3 mph - -   Haze
9:55 AM 80.4 °F 80.7 °F 57.0 °F 45% 29.92 in 6.2 mi East 15.0 mph - N/A   Scattered Clouds
10:58 AM 84.2 °F 83.3 °F 56.7 °F 39% 29.89 in 6.2 mi East 10.4 mph 17.3 mph N/A   Mostly Cloudy
11:58 AM 82.0 °F 81.6 °F 55.9 °F 41% 29.88 in 6.2 mi Variable 4.6 mph - N/A   Overcast
12:00 PM 84 °F - 63 °F 39% 29.88 in 6 mi North 4.6 mph - -   Haze
12:58 PM 87.3 °F 85.3 °F 54.0 °F 32% 29.96 in 6.2 mi East 11.5 mph 23.0 mph N/A   Scattered Clouds
1:58 PM 88.3 °F - 52.0 °F 29% 29.80 in 6.2 mi ENE 10.4 mph - N/A   Scattered Clouds
2:58 PM 89.6 °F - 51.8 °F 27% 29.91 in 6.2 mi ENE 9.2 mph 20.7 mph N/A   Scattered Clouds
3:00 PM 91 °F - 63 °F 29% 29.77 in 6 mi South 2.3 mph - -   Haze
3:58 PM 87.1 °F - 50.9 °F 29% 29.77 in 6.2 mi ESE 9.2 mph 18.4 mph N/A   Scattered Clouds
4:58 PM 86.5 °F - 52.2 °F 31% 29.79 in 6.2 mi ENE 10.4 mph 18.4 mph N/A   Partly Cloudy
5:58 PM 81.7 °F 81.1 °F 54.1 °F 39% 29.81 in 6.2 mi ENE 9.2 mph - N/A   Clear
6:00 PM 80 °F - 63 °F 46% 29.83 in 6 mi North 4.6 mph - -   Haze
6:58 PM 78.8 °F - 55.2 °F 44% 29.84 in 6.2 mi ENE 8.1 mph - N/A   Clear
7:58 PM 73.8 °F - 64.4 °F 72% 29.87 in 6.2 mi NW 12.7 mph - N/A   Clear